TimeAST,TemperatureF,Dew PointF,Humidity,Sea Level PressureIn,VisibilityMPH,Wind Direction,Wind SpeedMPH,Gust SpeedMPH,PrecipitationIn,Events,Conditions,WindDirDegrees,DateUTC
12:00 AM,82.4,78.8,89,29.83,6.2,SE,6.9,-,N/A,,Mostly Cloudy,130,2012-10-16 04:00:00
1:00 AM,82.4,78.8,89,29.83,6.2,SE,8.1,-,N/A,,Mostly Cloudy,130,2012-10-16 05:00:00
2:00 AM,81,78,88,29.80,11,ESE,5.8,,,,Widespread Dust,110,2012-10-16 06:00:00
2:00 AM,80.6,78.8,94,29.80,6.2,ESE,5.8,-,N/A,,Mostly Cloudy,110,2012-10-16 06:00:00
3:00 AM,80.6,78.8,94,29.80,6.2,ESE,5.8,-,N/A,,Scattered Clouds,110,2012-10-16 07:00:00
4:00 AM,80.6,78.8,94,29.77,6.2,ESE,4.6,-,N/A,,Scattered Clouds,110,2012-10-16 08:00:00
5:00 AM,80,77,89,29.79,12,East,3.5,,,,Widespread Dust,80,2012-10-16 09:00:00
5:00 AM,80.6,77.0,89,29.77,6.2,East,3.5,-,N/A,,Partly Cloudy,80,2012-10-16 09:00:00
6:00 AM,78.8,77.0,94,29.80,6.2,ENE,3.5,-,N/A,,Scattered Clouds,70,2012-10-16 10:00:00
7:00 AM,80.6,78.8,94,29.83,6.2,ESE,5.8,-,N/A,,Partly Cloudy,110,2012-10-16 11:00:00
8:00 AM,85,78,75,29.86,16,ESE,11.5,,,,Scattered Clouds,110,2012-10-16 12:00:00
8:00 AM,84.2,78.8,84,29.86,6.2,ESE,11.5,-,N/A,,Scattered Clouds,110,2012-10-16 12:00:00
9:00 AM,87.8,78.8,75,29.86,6.2,ESE,17.3,-,N/A,,Partly Cloudy,110,2012-10-16 13:00:00
10:00 AM,86.0,78.8,79,29.89,6.2,SE,20.7,-,N/A,,Scattered Clouds,130,2012-10-16 14:00:00
11:00 AM,88,79,68,29.88,16,SE,16.1,,,,Partly Cloudy,130,2012-10-16 15:00:00
11:00 AM,87.8,78.8,75,29.86,6.2,SE,16.1,-,N/A,,Scattered Clouds,130,2012-10-16 15:00:00
12:00 PM,87.8,78.8,75,29.86,6.2,SE,16.1,-,N/A,,Partly Cloudy,130,2012-10-16 16:00:00
1:00 PM,87.8,78.8,75,29.83,6.2,SE,15.0,-,N/A,,Scattered Clouds,140,2012-10-16 17:00:00
2:00 PM,88,80,72,29.82,16,SE,13.8,,,,Partly Cloudy,140,2012-10-16 18:00:00
2:00 PM,87.8,80.6,79,29.80,6.2,SE,13.8,-,N/A,,Scattered Clouds,140,2012-10-16 18:00:00
3:00 PM,87.8,78.8,75,29.80,6.2,ESE,15.0,-,N/A,,Scattered Clouds,120,2012-10-16 19:00:00
4:00 PM,86.0,78.8,79,29.80,6.2,SE,17.3,-,N/A,,Partly Cloudy,130,2012-10-16 20:00:00
5:00 PM,86,79,74,29.81,16,ESE,12.7,,,,Scattered Clouds,110,2012-10-16 21:00:00
5:00 PM,86.0,78.8,79,29.80,6.2,ESE,12.7,-,N/A,,Partly Cloudy,110,2012-10-16 21:00:00
6:00 PM,84.2,77.0,79,29.80,6.2,ESE,10.4,-,N/A,,Mostly Cloudy,110,2012-10-16 22:00:00
7:00 PM,82.4,78.8,89,29.83,6.2,ESE,9.2,-,N/A,,Mostly Cloudy,110,2012-10-16 23:00:00
8:00 PM,82,78,86,29.86,16,ESE,9.2,,,,Scattered Clouds,110,2012-10-17 00:00:00
8:00 PM,82.4,78.8,89,29.86,6.2,ESE,9.2,-,N/A,,Mostly Cloudy,110,2012-10-17 00:00:00
9:00 PM,82.4,78.8,89,29.86,6.2,ESE,6.9,-,N/A,,Mostly Cloudy,110,2012-10-17 01:00:00
10:00 PM,82.4,78.8,89,29.86,6.2,East,8.1,-,N/A,,Mostly Cloudy,100,2012-10-17 02:00:00
11:00 PM,82,78,85,29.88,16,East,5.8,,,,Scattered Clouds,100,2012-10-17 03:00:00
11:00 PM,82.4,78.8,89,29.86,6.2,East,5.8,-,N/A,,Mostly Cloudy,100,2012-10-17 03:00:00